Location: Asarope
(8.2500°N, 4.4833°E)
Time: 23:24:52
(UTC+00:00)

OAO 3 Rocket - Pass Details

Date: 07 June 2020
Orbit: 630 x 682 km, 35.0° (Epoch: 13 July)

Event Time Altitude Azimuth Distance (km) Brightness Sun altitude
Exits shadow 04:11:19 26° 276° (W) 1,247 4.1 -17.0°
Maximum altitude 04:13:19 40° 325° (NW) 941 3.9 -16.6°
Drops below altitude 10° 04:17:42 10° 35° (NE) 2,003 6.6 -15.6°
Sets 04:20:09 0° 43° (NE) 2,905 7.9 -15.0°
